7 * 24
多渠道服务支持
STARLINK-36931(NORAD编号68000)是美国SpaceX公司星链(Starlink)星座中的一颗互联网通信卫星。作为SpaceX大规模低轨卫星互联网项目的组成部分,它运行于近地轨道,旨在为全球提供高速宽带互联网接入服务,尤其服务偏远地区与网络基础设施薄弱区域。 2026年SpaceX启动四千颗星链卫星降轨计划,STARLINK-36931属于该批次降轨范围,轨道高度将从原550公里下调至480公里,以此降低碰撞风险,减少空间碎片,提升太空运行安全性,应对近地轨道拥挤问题。
美国
(US)
| 数据来源 | 国际轨道数据 |
| 星历时间: | 2026-09-11T02:25:18+0800 22小时前 查看轨道信息 |
| 半长轴: | 6861.147km |
| 偏心率: | 0.0001279 |
| 轨道倾角: | 43.001° |
| 近地点辐角 | 264.769° |
| 升交点赤经 | 83.273° |
| 平近点角 | 95.301° |
| 近地点: | 482.132km |
| 远地点: | 483.888km |
| 周期: | 94.266分钟 |
| 每日圈数: | 15.275932 |